ITY1625 LIRF-LIBR

Flight info

Callsign ITY1625
Flight time 1h 2m
Altitude 35000
Route SIPRO DCT TOPNO/N0365F190 L995 ROBOT
Aircraft A20N/M-SDE2E3FGHIRWXY/LB1

Departure

Time 2026-05-06 20:54
Airport Rome–Fiumicino Leonardo da Vinci International Airport (LIRF)

Arrival

Time 2026-05-06 21:56
Airport Brindisi Airport (LIBR)
Time Latitude Longitude Altitude Speed Heading
2026-05-06 20:31 41.79629 12.25791 16 ft 0 kts 116°
2026-05-06 20:38 41.79629 12.25790 16 ft 0 kts 116°
2026-05-06 20:42 41.79630 12.25788 16 ft 0 kts 117°
2026-05-06 20:42 41.79637 12.25773 16 ft 2 kts 123°
2026-05-06 20:43 41.79644 12.25757 16 ft 2 kts 120°
2026-05-06 20:43 41.79651 12.25741 16 ft 1 kts 121°
2026-05-06 20:43 41.79654 12.25734 16 ft 0 kts 112°
2026-05-06 20:43 41.79656 12.25728 16 ft 0 kts 96°
2026-05-06 20:44 41.79657 12.25721 16 ft 0 kts 82°
2026-05-06 20:44 41.79655 12.25714 16 ft 1 kts 65°
2026-05-06 20:44 41.79652 12.25705 16 ft 1 kts 44°
2026-05-06 20:44 41.79646 12.25700 16 ft 1 kts 27°
2026-05-06 20:45 41.79645 12.25699 16 ft 0 kts 26°
2026-05-06 20:45 41.79646 12.25699 16 ft 0 kts 26°
2026-05-06 20:48 41.79646 12.25700 16 ft 0 kts 27°
2026-05-06 20:48 41.79657 12.25707 16 ft 4 kts 29°
2026-05-06 20:48 41.79695 12.25739 16 ft 10 kts 34°
2026-05-06 20:48 41.79760 12.25793 16 ft 15 kts 28°
2026-05-06 20:49 41.79858 12.25837 16 ft 17 kts
2026-05-06 20:49 41.79968 12.25882 16 ft 18 kts 25°
2026-05-06 20:49 41.80085 12.25956 16 ft 19 kts 24°
2026-05-06 20:49 41.80215 12.26036 15 ft 19 kts 23°
2026-05-06 20:50 41.80365 12.26126 15 ft 20 kts 22°
2026-05-06 20:50 41.80630 12.26204 15 ft 0 kts 347°
2026-05-06 20:51 41.80632 12.26203 15 ft 0 kts 347°
2026-05-06 20:51 41.80664 12.26193 15 ft 4 kts 347°
2026-05-06 20:51 41.80667 12.26192 15 ft 0 kts 346°
2026-05-06 20:52 41.80676 12.26190 15 ft 2 kts 346°
2026-05-06 20:53 41.80711 12.26177 15 ft 7 kts 333°
2026-05-06 20:53 41.80725 12.26093 15 ft 12 kts 253°
2026-05-06 20:53 41.80625 12.25738 16 ft 79 kts 248°
2026-05-06 20:53 41.80345 12.24743 15 ft 146 kts 252°
2026-05-06 20:54 41.79971 12.23240 196 ft 184 kts 250°
2026-05-06 20:54 41.79557 12.21494 545 ft 207 kts 248°
2026-05-06 20:54 41.78870 12.19657 970 ft 235 kts 236°
2026-05-06 20:54 41.77900 12.17849 1773 ft 245 kts 227°
2026-05-06 20:55 41.76792 12.16262 2542 ft 225 kts 223°
2026-05-06 20:55 41.75635 12.14862 3379 ft 225 kts 216°
2026-05-06 20:55 41.74229 12.13942 4038 ft 236 kts 195°
2026-05-06 20:55 41.72559 12.13549 4675 ft 252 kts 185°
2026-05-06 20:56 41.70796 12.13527 5529 ft 258 kts 176°
2026-05-06 20:56 41.69036 12.13879 6471 ft 260 kts 168°
2026-05-06 20:56 41.67301 12.14636 7375 ft 264 kts 158°
2026-05-06 20:56 41.65664 12.15715 8240 ft 268 kts 154°
2026-05-06 20:57 41.63946 12.16690 9105 ft 270 kts 162°
2026-05-06 20:57 41.62103 12.17240 9961 ft 273 kts 173°
2026-05-06 20:57 41.60195 12.17437 10668 ft 281 kts 176°
2026-05-06 20:57 41.58191 12.17569 11102 ft 299 kts 177°
2026-05-06 20:58 41.56088 12.18038 11489 ft 318 kts 163°
2026-05-06 20:58 41.54028 12.19311 11878 ft 337 kts 148°
2026-05-06 20:58 41.52087 12.21138 12480 ft 347 kts 146°
2026-05-06 20:58 41.50130 12.23074 13182 ft 353 kts 144°
2026-05-06 20:59 41.48416 12.25456 13816 ft 364 kts 124°
2026-05-06 20:59 41.47464 12.28577 14499 ft 373 kts 102°
2026-05-06 20:59 41.47445 12.32045 15206 ft 380 kts 79°
2026-05-06 20:59 41.48426 12.35338 15847 ft 386 kts 57°
2026-05-06 21:00 41.50039 12.38245 16492 ft 391 kts 49°
2026-05-06 21:00 41.51976 12.40775 17071 ft 395 kts 37°
2026-05-06 21:00 41.54291 12.42766 17708 ft 398 kts 25°
2026-05-06 21:00 41.56804 12.44334 18334 ft 401 kts 22°
2026-05-06 21:01 41.59357 12.45831 18909 ft 406 kts 22°
2026-05-06 21:01 41.61937 12.47370 19484 ft 410 kts 23°
2026-05-06 21:01 41.64367 12.49422 20030 ft 417 kts 42°
2026-05-06 21:01 41.66114 12.52560 20625 ft 420 kts 64°
2026-05-06 21:02 41.66920 12.56267 21172 ft 421 kts 85°
2026-05-06 21:02 41.66883 12.60198 21699 ft 423 kts 96°
2026-05-06 21:02 41.66671 12.64104 22147 ft 429 kts 96°
2026-05-06 21:02 41.66468 12.68111 22632 ft 434 kts 96°
2026-05-06 21:03 41.66298 12.72185 23155 ft 438 kts 95°
2026-05-06 21:03 41.66152 12.76222 23672 ft 442 kts 95°
2026-05-06 21:03 41.66009 12.80336 24167 ft 446 kts 96°
2026-05-06 21:03 41.65863 12.84497 24676 ft 449 kts 96°
2026-05-06 21:04 41.65719 12.88664 25142 ft 453 kts 96°
2026-05-06 21:04 41.65569 12.92898 25631 ft 456 kts 96°
2026-05-06 21:04 41.65417 12.97127 26112 ft 459 kts 96°
2026-05-06 21:04 41.65265 13.01377 26555 ft 462 kts 97°
2026-05-06 21:05 41.65110 13.05654 26978 ft 466 kts 97°
2026-05-06 21:05 41.64952 13.09987 27412 ft 469 kts 97°
2026-05-06 21:05 41.64794 13.14309 27971 ft 468 kts 97°
2026-05-06 21:05 41.64599 13.18632 28570 ft 463 kts 101°
2026-05-06 21:06 41.63766 13.22680 29044 ft 448 kts 121°
2026-05-06 21:06 41.62294 13.26297 29596 ft 441 kts 127°
2026-05-06 21:06 41.60692 13.29816 30096 ft 439 kts 127°
2026-05-06 21:06 41.59141 13.33290 30602 ft 439 kts 127°
2026-05-06 21:07 41.57618 13.36837 31002 ft 441 kts 126°
2026-05-06 21:07 41.56132 13.40408 31334 ft 443 kts 125°
2026-05-06 21:07 41.54672 13.43985 31714 ft 444 kts 124°
2026-05-06 21:07 41.53207 13.47614 31997 ft 446 kts 124°
2026-05-06 21:08 41.51725 13.51291 32010 ft 446 kts 124°
2026-05-06 21:08 41.48782 13.58576 32019 ft 446 kts 124°
2026-05-06 21:09 41.45909 13.65918 32019 ft 448 kts 121°
2026-05-06 21:09 41.43581 13.73661 32017 ft 454 kts 114°
2026-05-06 21:10 41.41884 13.81761 32021 ft 455 kts 110°
2026-05-06 21:10 41.40316 13.89936 32021 ft 455 kts 110°
2026-05-06 21:11 41.38746 13.98071 32024 ft 455 kts 110°
2026-05-06 21:11 41.37157 14.06235 32023 ft 454 kts 110°
2026-05-06 21:12 41.35561 14.14383 32024 ft 454 kts 110°
2026-05-06 21:12 41.33971 14.22469 32024 ft 454 kts 109°
2026-05-06 21:13 41.32370 14.30581 32024 ft 455 kts 109°
2026-05-06 21:13 41.30754 14.38737 32019 ft 456 kts 109°
2026-05-06 21:14 41.29140 14.46840 32016 ft 457 kts 109°
2026-05-06 21:14 41.27516 14.54983 32016 ft 457 kts 109°
2026-05-06 21:15 41.25880 14.63139 32017 ft 457 kts 109°
2026-05-06 21:15 41.24251 14.71266 32016 ft 456 kts 110°
2026-05-06 21:16 41.22604 14.79438 32019 ft 456 kts 110°
2026-05-06 21:16 41.20959 14.87550 32020 ft 457 kts 110°
2026-05-06 21:17 41.19312 14.95632 32021 ft 457 kts 110°
2026-05-06 21:17 41.17635 15.03824 32024 ft 457 kts 109°
2026-05-06 21:18 41.15962 15.11975 32022 ft 458 kts 110°
2026-05-06 21:18 41.14286 15.20101 32024 ft 458 kts 109°
2026-05-06 21:19 41.12600 15.28245 32024 ft 459 kts 109°
2026-05-06 21:19 41.10915 15.36353 32030 ft 458 kts 109°
2026-05-06 21:20 41.09212 15.44513 32028 ft 459 kts 109°
2026-05-06 21:20 41.07508 15.52645 32017 ft 459 kts 109°
2026-05-06 21:21 41.05799 15.60774 32015 ft 459 kts 109°
2026-05-06 21:21 41.04091 15.68880 32015 ft 459 kts 109°
2026-05-06 21:22 41.02380 15.76992 32014 ft 459 kts 110°
2026-05-06 21:22 41.00663 15.85092 31868 ft 456 kts 110°
2026-05-06 21:22 40.99809 15.89115 30966 ft 451 kts 110°
2026-05-06 21:23 40.98965 15.93065 29569 ft 453 kts 110°
2026-05-06 21:23 40.98116 15.97026 28144 ft 454 kts 110°
2026-05-06 21:23 40.97260 16.01005 26931 ft 448 kts 109°
2026-05-06 21:23 40.96420 16.04909 25796 ft 441 kts 109°
2026-05-06 21:24 40.95587 16.08788 24884 ft 432 kts 109°
2026-05-06 21:24 40.94852 16.12556 24301 ft 415 kts 106°
2026-05-06 21:24 40.94227 16.16200 23851 ft 399 kts 106°
2026-05-06 21:24 40.93642 16.19657 23424 ft 382 kts 106°
2026-05-06 21:25 40.93065 16.23048 22762 ft 379 kts 106°
2026-05-06 21:25 40.92483 16.26451 21638 ft 387 kts 106°
2026-05-06 21:25 40.91884 16.29924 20611 ft 399 kts 106°
2026-05-06 21:25 40.91257 16.33545 19637 ft 409 kts 105°
2026-05-06 21:26 40.90631 16.37215 18804 ft 416 kts 104°
2026-05-06 21:26 40.90232 16.41019 18188 ft 417 kts 98°
2026-05-06 21:26 40.89980 16.44805 17577 ft 409 kts 97°
2026-05-06 21:26 40.89744 16.48487 16652 ft 404 kts 98°
2026-05-06 21:27 40.89493 16.52121 15671 ft 400 kts 99°
2026-05-06 21:27 40.89231 16.55731 14703 ft 394 kts 99°
2026-05-06 21:27 40.88963 16.59308 13729 ft 388 kts 99°
2026-05-06 21:27 40.88698 16.62757 12786 ft 382 kts 99°
2026-05-06 21:28 40.88427 16.66218 11878 ft 373 kts 100°
2026-05-06 21:28 40.88166 16.69543 11425 ft 364 kts 100°
2026-05-06 21:28 40.87906 16.72871 11186 ft 362 kts 99°
2026-05-06 21:28 40.87647 16.76165 10941 ft 360 kts 99°
2026-05-06 21:29 40.87387 16.79454 10696 ft 358 kts 99°
2026-05-06 21:29 40.87129 16.82690 10450 ft 354 kts 99°
2026-05-06 21:29 40.86875 16.85907 10212 ft 351 kts 99°
2026-05-06 21:29 40.86618 16.89097 9972 ft 349 kts 99°
2026-05-06 21:30 40.86365 16.92245 9846 ft 347 kts 98°
2026-05-06 21:30 40.86110 16.95404 9729 ft 345 kts 98°
2026-05-06 21:30 40.85860 16.98514 9527 ft 334 kts 98°
2026-05-06 21:30 40.85620 17.01515 9398 ft 321 kts 98°
2026-05-06 21:31 40.85390 17.04375 9270 ft 309 kts 98°
2026-05-06 21:31 40.85164 17.07176 9143 ft 297 kts 98°
2026-05-06 21:31 40.84949 17.09823 9021 ft 291 kts 98°
2026-05-06 21:31 40.84729 17.12501 8895 ft 291 kts 98°
2026-05-06 21:32 40.84513 17.15127 8763 ft 291 kts 98°
2026-05-06 21:32 40.84074 17.20449 8473 ft 290 kts 98°
2026-05-06 21:32 40.83856 17.23073 8313 ft 290 kts 98°
2026-05-06 21:33 40.83635 17.25717 8089 ft 289 kts 98°
2026-05-06 21:33 40.83416 17.28346 7824 ft 288 kts 98°
2026-05-06 21:33 40.83196 17.30968 7529 ft 286 kts 97°
2026-05-06 21:33 40.82981 17.33536 7285 ft 280 kts 97°
2026-05-06 21:34 40.82771 17.36059 7059 ft 274 kts 97°
2026-05-06 21:34 40.82564 17.38528 6798 ft 269 kts 97°
2026-05-06 21:34 40.82359 17.40970 6535 ft 265 kts 97°
2026-05-06 21:34 40.82156 17.43373 6272 ft 261 kts 97°
2026-05-06 21:35 40.81958 17.45722 6015 ft 257 kts 97°
2026-05-06 21:35 40.81762 17.48038 5701 ft 253 kts 97°
2026-05-06 21:35 40.81569 17.50310 5405 ft 247 kts 98°
2026-05-06 21:35 40.81380 17.52535 5137 ft 241 kts 98°
2026-05-06 21:36 40.81194 17.54719 4844 ft 236 kts 98°
2026-05-06 21:36 40.81011 17.56863 4502 ft 235 kts 98°
2026-05-06 21:36 40.80828 17.58991 4186 ft 233 kts 98°
2026-05-06 21:36 40.80647 17.61118 3906 ft 233 kts 98°
2026-05-06 21:37 40.80468 17.63214 3661 ft 232 kts 98°
2026-05-06 21:37 40.80284 17.65349 3431 ft 229 kts 99°
2026-05-06 21:37 40.80109 17.67404 3240 ft 224 kts 99°
2026-05-06 21:37 40.79939 17.69402 3055 ft 218 kts 100°
2026-05-06 21:38 40.79771 17.71375 2948 ft 209 kts 101°
2026-05-06 21:38 40.79612 17.73214 2897 ft 197 kts 101°
2026-05-06 21:38 40.79455 17.74984 2869 ft 194 kts 101°
2026-05-06 21:38 40.79296 17.76766 2839 ft 195 kts 101°
2026-05-06 21:39 40.78993 17.78468 2762 ft 186 kts 126°
2026-05-06 21:39 40.78178 17.79701 2685 ft 177 kts 143°
2026-05-06 21:39 40.77263 17.80774 2647 ft 171 kts 143°
2026-05-06 21:39 40.76419 17.81777 2525 ft 154 kts 143°
2026-05-06 21:40 40.75661 17.82691 2428 ft 144 kts 144°
2026-05-06 21:40 40.74934 17.83569 2191 ft 141 kts 144°
2026-05-06 21:40 40.74223 17.84428 1887 ft 140 kts 144°
2026-05-06 21:40 40.73505 17.85299 1559 ft 139 kts 143°
2026-05-06 21:41 40.72794 17.86162 1379 ft 139 kts 143°
2026-05-06 21:41 40.72085 17.87025 1227 ft 139 kts 142°
2026-05-06 21:41 40.71378 17.87889 1081 ft 139 kts 142°
2026-05-06 21:41 40.70673 17.88765 931 ft 140 kts 139°
2026-05-06 21:42 40.69989 17.89683 744 ft 139 kts 141°
2026-05-06 21:42 40.69280 17.90548 518 ft 139 kts 142°
2026-05-06 21:42 40.68552 17.91404 346 ft 140 kts 141°
2026-05-06 21:42 40.67832 17.92269 171 ft 141 kts 140°
2026-05-06 21:43 40.67105 17.93152 70 ft 141 kts 139°
2026-05-06 21:43 40.66421 17.93983 114 ft 135 kts 141°
2026-05-06 21:43 40.65704 17.94840 633 ft 144 kts 140°
2026-05-06 21:43 40.65011 17.95924 995 ft 175 kts 131°
2026-05-06 21:44 40.64166 17.97363 1064 ft 224 kts 133°
2026-05-06 21:44 40.63058 17.99013 1561 ft 247 kts 143°
2026-05-06 21:44 40.61815 18.00229 2103 ft 209 kts 147°
2026-05-06 21:44 40.60897 18.01721 2426 ft 217 kts 112°
2026-05-06 21:45 40.60762 18.03720 2515 ft 225 kts 92°
2026-05-06 21:45 40.60889 18.05775 2523 ft 227 kts 90°
2026-05-06 21:45 40.61015 18.07861 2524 ft 226 kts 92°
2026-05-06 21:45 40.61110 18.09917 2523 ft 227 kts 87°
2026-05-06 21:46 40.61739 18.11816 2506 ft 236 kts 47°
2026-05-06 21:46 40.63175 18.12804 2515 ft 238 kts
2026-05-06 21:46 40.64778 18.12404 2522 ft 233 kts 326°
2026-05-06 21:46 40.65934 18.10996 2523 ft 226 kts 296°
2026-05-06 21:47 40.66638 18.09163 2528 ft 226 kts 290°
2026-05-06 21:47 40.67329 18.07284 2524 ft 226 kts 291°
2026-05-06 21:47 40.68045 18.05435 2522 ft 226 kts 292°
2026-05-06 21:47 40.68794 18.03623 2518 ft 228 kts 298°
2026-05-06 21:48 40.69933 18.02139 2521 ft 234 kts 319°
2026-05-06 21:48 40.71135 18.00710 2518 ft 231 kts 306°
2026-05-06 21:48 40.72274 17.99192 2521 ft 234 kts 313°
2026-05-06 21:48 40.73486 17.97782 2519 ft 233 kts 315°
2026-05-06 21:49 40.74719 17.96379 2518 ft 232 kts 315°
2026-05-06 21:49 40.75935 17.95002 2516 ft 232 kts 315°
2026-05-06 21:49 40.77170 17.93606 2517 ft 232 kts 315°
2026-05-06 21:49 40.78390 17.92223 2519 ft 233 kts 315°
2026-05-06 21:50 40.79619 17.90829 2516 ft 233 kts 315°
2026-05-06 21:50 40.80863 17.89420 2518 ft 235 kts 315°
2026-05-06 21:50 40.82073 17.88052 2507 ft 225 kts 313°
2026-05-06 21:50 40.82962 17.86488 2471 ft 199 kts 280°
2026-05-06 21:51 40.82970 17.84837 2468 ft 171 kts 243°
2026-05-06 21:51 40.82452 17.83441 2510 ft 170 kts 236°
2026-05-06 21:51 40.81851 17.82091 2513 ft 170 kts 235°
2026-05-06 21:51 40.81240 17.80771 2506 ft 166 kts 235°
2026-05-06 21:52 40.80539 17.79618 2477 ft 157 kts 208°
2026-05-06 21:52 40.79509 17.79371 2380 ft 157 kts 166°
2026-05-06 21:52 40.78574 17.80132 2302 ft 161 kts 147°
2026-05-06 21:52 40.77650 17.80969 2209 ft 160 kts 153°
2026-05-06 21:53 40.76707 17.81727 2159 ft 160 kts 153°
2026-05-06 21:53 40.75830 17.82663 1985 ft 162 kts 141°
2026-05-06 21:53 40.75058 17.83737 1815 ft 162 kts 139°
2026-05-06 21:53 40.74296 17.84835 1651 ft 161 kts 138°
2026-05-06 21:54 40.73502 17.85874 1531 ft 160 kts 143°
2026-05-06 21:54 40.72684 17.86780 1329 ft 146 kts 148°
2026-05-06 21:54 40.71904 17.87590 1107 ft 139 kts 146°
2026-05-06 21:54 40.71147 17.88383 963 ft 140 kts 145°
2026-05-06 21:55 40.70394 17.89222 809 ft 142 kts 143°
2026-05-06 21:55 40.69673 17.90072 540 ft 134 kts 142°
2026-05-06 21:55 40.68991 17.90866 365 ft 131 kts 141°
2026-05-06 21:55 40.68314 17.91682 223 ft 131 kts 140°
2026-05-06 21:56 40.67639 17.92497 96 ft 131 kts 139°
2026-05-06 21:56 40.66973 17.93317 36 ft 126 kts 139°
2026-05-06 21:56 40.66424 17.93975 34 ft 83 kts 138°
2026-05-06 21:56 40.66103 17.94372 34 ft 41 kts 137°
2026-05-06 21:57 40.65940 17.94525 34 ft 17 kts 191°
2026-05-06 21:57 40.65869 17.94426 36 ft 14 kts 234°
2026-05-06 21:57 40.65807 17.94323 37 ft 13 kts 232°
2026-05-06 21:57 40.65750 17.94230 39 ft 12 kts 232°
2026-05-06 21:58 40.65767 17.94156 40 ft 8 kts 330°
2026-05-06 21:58 40.65815 17.94113 40 ft 2 kts 323°